TimeEDT,TemperatureF,Dew PointF,Humidity,Sea Level PressureIn,VisibilityMPH,Wind Direction,Wind SpeedMPH,Gust SpeedMPH,PrecipitationIn,Events,Conditions,WindDirDegrees,DateUTC
12:15 AM,39.2,21.2,49,29.99,10.0,WNW,17.3,28.8,N/A,,Mostly Cloudy,290,2013-03-14 04:15:00
12:35 AM,39.2,21.2,49,29.99,10.0,WNW,10.4,25.3,N/A,,Partly Cloudy,300,2013-03-14 04:35:00
12:55 AM,37.4,19.4,48,29.99,10.0,WNW,15.0,25.3,N/A,,Partly Cloudy,300,2013-03-14 04:55:00
1:15 AM,37.4,19.4,48,30.00,10.0,WNW,19.6,28.8,N/A,,Clear,290,2013-03-14 05:15:00
1:35 AM,37.4,19.4,48,30.00,10.0,WNW,12.7,26.5,N/A,,Clear,300,2013-03-14 05:35:00
1:55 AM,35.6,17.6,48,30.01,10.0,WNW,16.1,27.6,N/A,,Clear,290,2013-03-14 05:55:00
2:15 AM,35.6,17.6,48,30.01,10.0,WNW,15.0,25.3,N/A,,Clear,300,2013-03-14 06:15:00
2:55 AM,35.6,17.6,48,30.01,10.0,NW,13.8,21.9,N/A,,Partly Cloudy,310,2013-03-14 06:55:00
3:15 AM,35.6,15.8,44,30.01,10.0,WNW,13.8,27.6,N/A,,Partly Cloudy,300,2013-03-14 07:15:00
3:35 AM,35.6,15.8,44,30.01,10.0,WNW,15.0,27.6,N/A,,Scattered Clouds,290,2013-03-14 07:35:00
3:55 AM,35.6,15.8,44,30.00,10.0,WNW,16.1,24.2,N/A,,Overcast,300,2013-03-14 07:55:00
4:15 AM,35.6,15.8,44,30.00,10.0,WNW,10.4,24.2,N/A,,Mostly Cloudy,290,2013-03-14 08:15:00
4:35 AM,35.6,15.8,44,30.00,10.0,WNW,12.7,19.6,N/A,,Scattered Clouds,300,2013-03-14 08:35:00
4:55 AM,35.6,17.6,48,30.00,10.0,WNW,16.1,21.9,N/A,,Mostly Cloudy,290,2013-03-14 08:55:00
5:15 AM,33.8,17.6,52,30.01,10.0,WNW,11.5,19.6,N/A,,Scattered Clouds,300,2013-03-14 09:15:00
5:35 AM,33.8,17.6,52,30.01,10.0,WNW,10.4,24.2,N/A,,Scattered Clouds,290,2013-03-14 09:35:00
5:55 AM,33.8,17.6,52,30.02,10.0,West,16.1,21.9,N/A,,Partly Cloudy,280,2013-03-14 09:55:00
6:15 AM,33.8,17.6,52,30.02,10.0,WNW,13.8,19.6,N/A,,Partly Cloudy,290,2013-03-14 10:15:00
6:35 AM,33.8,19.4,56,30.02,10.0,West,16.1,21.9,N/A,,Clear,280,2013-03-14 10:35:00
6:55 AM,33.8,17.6,52,30.03,10.0,West,15.0,24.2,N/A,,Partly Cloudy,280,2013-03-14 10:55:00
7:15 AM,33.8,17.6,52,30.03,10.0,West,17.3,23.0,N/A,,Clear,280,2013-03-14 11:15:00
7:35 AM,33.8,17.6,52,30.04,10.0,West,16.1,26.5,N/A,,Partly Cloudy,280,2013-03-14 11:35:00
7:55 AM,33.8,17.6,52,30.04,10.0,WNW,16.1,21.9,N/A,,Scattered Clouds,290,2013-03-14 11:55:00
8:15 AM,33.8,17.6,52,30.04,10.0,WNW,13.8,21.9,N/A,,Mostly Cloudy,290,2013-03-14 12:15:00
8:35 AM,33.8,17.6,52,30.05,10.0,West,15.0,24.2,N/A,,Mostly Cloudy,280,2013-03-14 12:35:00
8:55 AM,33.8,17.6,52,30.05,10.0,WNW,15.0,24.2,N/A,,Mostly Cloudy,290,2013-03-14 12:55:00
9:15 AM,35.6,17.6,48,30.05,10.0,WNW,12.7,25.3,N/A,,Mostly Cloudy,300,2013-03-14 13:15:00
9:35 AM,35.6,17.6,48,30.05,10.0,WNW,17.3,25.3,N/A,,Mostly Cloudy,300,2013-03-14 13:35:00
9:55 AM,35.6,17.6,48,30.05,10.0,West,18.4,28.8,N/A,,Mostly Cloudy,280,2013-03-14 13:55:00
10:15 AM,37.4,19.4,48,30.04,10.0,WNW,20.7,31.1,N/A,,Mostly Cloudy,290,2013-03-14 14:15:00
10:35 AM,35.6,17.6,48,30.05,10.0,WNW,19.6,28.8,N/A,,Overcast,300,2013-03-14 14:35:00
10:55 AM,35.6,15.8,44,30.04,10.0,WNW,19.6,28.8,N/A,,Mostly Cloudy,290,2013-03-14 14:55:00
11:15 AM,37.4,19.4,48,30.04,10.0,WNW,17.3,21.9,N/A,,Mostly Cloudy,290,2013-03-14 15:15:00
11:35 AM,35.6,17.6,48,30.04,10.0,WNW,15.0,27.6,N/A,,Mostly Cloudy,300,2013-03-14 15:35:00
11:55 AM,37.4,17.6,45,30.03,10.0,WNW,18.4,28.8,N/A,,Partly Cloudy,290,2013-03-14 15:55:00
12:15 PM,39.2,19.4,45,30.03,10.0,WNW,17.3,24.2,N/A,,Scattered Clouds,300,2013-03-14 16:15:00
12:35 PM,39.2,19.4,45,30.02,10.0,West,19.6,32.2,N/A,,Mostly Cloudy,280,2013-03-14 16:35:00
12:55 PM,39.2,17.6,42,30.02,10.0,WNW,17.3,28.8,N/A,,Scattered Clouds,300,2013-03-14 16:55:00
1:15 PM,39.2,17.6,42,30.01,10.0,WNW,16.1,25.3,N/A,,Scattered Clouds,290,2013-03-14 17:15:00
1:35 PM,39.2,17.6,42,30.00,10.0,West,21.9,29.9,N/A,,Scattered Clouds,280,2013-03-14 17:35:00
1:55 PM,39.2,17.6,42,29.99,10.0,WNW,11.5,26.5,N/A,,Mostly Cloudy,290,2013-03-14 17:55:00
2:15 PM,39.2,17.6,42,29.98,10.0,West,17.3,26.5,N/A,,Mostly Cloudy,280,2013-03-14 18:15:00
2:35 PM,41.0,19.4,42,29.98,10.0,WNW,16.1,26.5,N/A,,Mostly Cloudy,290,2013-03-14 18:35:00
2:55 PM,41.0,19.4,42,29.97,10.0,West,17.3,27.6,N/A,,Mostly Cloudy,280,2013-03-14 18:55:00
3:15 PM,41.0,19.4,42,29.97,10.0,WNW,21.9,27.6,N/A,,Mostly Cloudy,290,2013-03-14 19:15:00
3:35 PM,41.0,17.6,39,29.97,10.0,WNW,15.0,28.8,N/A,,Scattered Clouds,290,2013-03-14 19:35:00
3:55 PM,41.0,19.4,42,29.97,10.0,WNW,12.7,25.3,N/A,,Mostly Cloudy,290,2013-03-14 19:55:00
4:15 PM,41.0,17.6,39,29.97,10.0,West,17.3,25.3,N/A,,Scattered Clouds,280,2013-03-14 20:15:00
4:35 PM,42.8,19.4,39,29.97,10.0,West,18.4,27.6,N/A,,Mostly Cloudy,280,2013-03-14 20:35:00
4:55 PM,42.8,17.6,36,29.97,10.0,WNW,18.4,26.5,N/A,,Scattered Clouds,290,2013-03-14 20:55:00
5:15 PM,42.8,19.4,39,29.97,10.0,WNW,16.1,23.0,N/A,,Clear,290,2013-03-14 21:15:00
5:35 PM,42.8,17.6,36,29.97,10.0,WNW,15.0,23.0,N/A,,Partly Cloudy,300,2013-03-14 21:35:00
5:55 PM,42.8,17.6,36,29.97,10.0,WNW,11.5,24.2,N/A,,Scattered Clouds,300,2013-03-14 21:55:00
6:15 PM,41.0,17.6,39,29.97,10.0,WNW,16.1,23.0,N/A,,Partly Cloudy,290,2013-03-14 22:15:00
6:35 PM,41.0,17.6,39,29.98,10.0,WNW,15.0,24.2,N/A,,Clear,300,2013-03-14 22:35:00
6:55 PM,39.2,15.8,39,29.99,10.0,WNW,13.8,21.9,N/A,,Clear,300,2013-03-14 22:55:00
7:15 PM,39.2,15.8,39,30.00,10.0,WNW,10.4,25.3,N/A,,Clear,300,2013-03-14 23:15:00
7:35 PM,39.2,15.8,39,30.00,10.0,WNW,15.0,23.0,N/A,,Clear,290,2013-03-14 23:35:00
7:55 PM,39.2,15.8,39,30.01,10.0,WNW,17.3,25.3,N/A,,Clear,290,2013-03-14 23:55:00
8:15 PM,39.2,15.8,39,30.01,10.0,WNW,15.0,26.5,N/A,,Clear,300,2013-03-15 00:15:00
8:35 PM,39.2,15.8,39,30.02,10.0,NW,11.5,21.9,N/A,,Clear,310,2013-03-15 00:35:00
8:55 PM,39.2,15.8,39,30.02,10.0,WNW,15.0,20.7,N/A,,Clear,290,2013-03-15 00:55:00
9:15 PM,39.2,17.6,42,30.02,10.0,WNW,12.7,18.4,N/A,,Clear,290,2013-03-15 01:15:00
9:35 PM,39.2,17.6,42,30.02,10.0,WNW,15.0,20.7,N/A,,Clear,300,2013-03-15 01:35:00
9:55 PM,39.2,15.8,39,30.03,10.0,WNW,15.0,21.9,N/A,,Clear,300,2013-03-15 01:55:00
10:15 PM,39.2,15.8,39,30.03,10.0,WNW,17.3,27.6,N/A,,Clear,290,2013-03-15 02:15:00
10:35 PM,39.2,15.8,39,30.03,10.0,WNW,18.4,26.5,N/A,,Clear,290,2013-03-15 02:35:00
10:55 PM,37.4,15.8,41,30.04,10.0,WNW,16.1,24.2,N/A,,Clear,290,2013-03-15 02:55:00
11:15 PM,37.4,15.8,41,30.03,10.0,WNW,15.0,25.3,N/A,,Clear,290,2013-03-15 03:15:00
11:35 PM,37.4,15.8,41,30.04,10.0,WNW,15.0,27.6,N/A,,Clear,290,2013-03-15 03:35:00
11:55 PM,37.4,15.8,41,30.04,10.0,WNW,16.1,23.0,N/A,,Clear,290,2013-03-15 03:55:00